FW5667 Weather Reports


time (UTC)temp
F
wind
direction
speed
knots
gust
knots
rain 1hr
in
rain 24hr
in
rain mn
in
humidity
%
barometer
mb
20210920060534 50 0 0.0 0.0 0.00 0.98 0.98 94 1024.0
20210920060058 51 0 0.0 0.0 0.00 0.98 0.98 94 1024.2
20210920055522 51 0 0.0 0.0 0.00 0.98 0.98 94 1024.1
20210920055037 51 0 0.0 0.0 0.00 0.98 0.98 94 1023.9
20210920054626 51 0 0.0 0.0 0.00 0.98 0.98 94 1024.0
20210920054023 51 0 0.0 0.0 0.00 0.98 0.98 94 1024.0
20210920053529 51 0 0.0 0.9 0.00 0.98 0.98 94 1024.0
20210920053056 51 0 0.0 0.9 0.00 0.98 0.98 94 1023.8
20210920052522 51 0 0.0 0.0 0.00 0.98 0.98 94 1023.9
20210920052021 51 0 0.0 0.0 0.00 0.98 0.98 94 1023.9
20210920051541 51 0 0.0 0.0 0.00 0.98 0.98 94 1023.8
20210920051030 52 0 0.0 0.0 0.00 0.98 0.98 93 1023.8
20210920050524 52 0 0.0 0.0 0.00 0.98 0.98 93 1023.7
20210920050036 52 0 0.0 0.0 0.00 0.98 0.98 93 1023.7
20210920045524 52 0 0.0 0.0 0.00 0.98 0.98 93 1023.8
20210920045036 52 0 0.0 0.0 0.00 0.98 0.98 93 1023.7
20210920044602 52 0 0.0 0.9 0.00 0.98 0.98 93 1023.7
20210920044024 52 0 0.0 0.9 0.00 0.98 0.98 93 1023.6
20210920043528 52 0 0.0 0.9 0.01 0.98 0.98 93 1023.5
20210920043100 52 0 0.0 0.0 0.01 0.98 0.98 93 1023.4
20210920042536 53 0 0.0 0.0 0.01 0.98 0.98 92 1023.4
20210920042046 53 0 0.0 0.0 0.01 0.98 0.98 93 1023.3
20210920041557 53 0 0.0 0.0 0.01 0.98 0.98 92 1023.3
20210920041035 53 0 0.0 0.0 0.01 0.98 0.98 92 1023.1
20210920040522 53 0 0.0 0.0 0.01 0.98 0.98 91 1023.1
20210920040042 54 0 0.0 0.0 0.01 0.98 0.98 91 1022.9
20210920035521 54 0 0.0 0.9 0.01 0.99 0.98 90 1022.8
20210920035023 54 0 0.0 1.7 0.01 0.99 0.98 90 1022.8
20210920034600 54 0 0.0 1.7 0.01 0.99 0.98 91 1022.7
20210920034022 54 0 0.0 0.0 0.01 0.99 0.98 90 1022.6
20210920033523 54 0 0.0 0.0 0.00 0.98 0.97 90 1022.6
20210920033034 54 0 0.0 0.0 0.00 0.98 0.97 90 1022.4
20210920032523 54 0 0.0 0.0 0.00 0.98 0.97 89 1022.4
20210920032037 54 0 0.0 2.6 0.00 0.98 0.97 89 1022.2
20210920031538 55 0 0.0 2.6 0.00 0.98 0.97 88 1022.1
20210920031032 55 229 0.0 0.9 0.00 0.98 0.97 88 1022.0
20210920030527 55 0 0.0 0.9 0.00 0.98 0.97 87 1022.0
20210920030058 55 0 0.0 0.9 0.00 0.98 0.97 86 1021.9
20210920025523 56 0 0.0 1.7 0.00 0.98 0.97 85 1021.8
20210920025021 57 0 0.0 2.6 0.00 0.98 0.97 83 1021.7
20210920024544 57 0 0.0 2.6 0.00 0.98 0.97 83 1021.8
20210920024024 57 228 0.0 2.6 0.00 0.98 0.97 82 1021.8
20210920023523 58 0 0.0 4.3 0.00 0.98 0.97 80 1021.6
20210920023032 58 230 0.9 6.1 0.00 0.98 0.97 79 1021.7
20210920022522 59 217 1.7 6.1 0.00 0.98 0.97 79 1021.6
20210920022023 59 227 0.9 5.2 0.00 0.98 0.97 79 1021.6
20210920021528 59 0 1.7 5.2 0.00 0.98 0.97 79 1021.5
20210920021024 59 238 0.9 5.2 0.00 0.98 0.97 79 1021.4
20210920020535 59 151 0.9 4.3 0.00 0.98 0.97 78 1021.5
20210920020038 59 219 1.7 5.2 0.00 0.98 0.97 78 1021.4
20210920015526 59 213 3.5 5.2 0.00 0.98 0.97 78 1021.4
20210920015035 59 0 0.0 3.5 0.00 0.98 0.97 79 1021.3
20210920014527 59 202 0.9 3.5 0.00 0.98 0.97 80 1021.3
20210920014023 59 205 0.0 5.2 0.00 0.98 0.97 80 1021.3
20210920013532 59 0 0.9 6.1 0.00 0.98 0.97 78 1021.1
20210920013102 59 244 1.7 6.1 0.00 0.98 0.97 77 1021.1
20210920012521 60 198 0.9 6.1 0.00 0.98 0.97 78 1021.1
20210920012024 60 248 0.9 6.1 0.00 0.98 0.97 77 1021.1
20210920011541 59 178 2.6 6.1 0.00 0.98 0.97 77 1021.0
20210920011021 59 199 1.7 6.1 0.00 0.98 0.97 76 1021.0
20210920010524 60 240 1.7 10.4 0.00 0.98 0.97 76 1020.9
20210920010046 60 185 3.5 10.4 0.00 0.98 0.97 76 1020.8
20210920005545 60 196 5.2 13.0 0.00 0.98 0.97 76 1020.8
20210920005027 60 153 4.3 13.0 0.00 0.98 0.97 76 1020.8
20210920004609 60 211 4.3 10.4 0.00 0.98 0.97 76 1020.7
20210920004021 60 208 3.5 10.4 0.00 0.98 0.97 76 1020.7
20210920003529 60 195 4.3 12.2 0.00 0.98 0.97 78 1020.5
20210920003058 60 145 5.2 12.2 0.00 0.98 0.97 78 1020.5
20210920002521 60 180 3.5 10.4 0.00 0.98 0.97 80 1020.4
20210920002021 60 168 5.2 9.6 0.00 0.98 0.97 79 1020.3
20210920001622 60 138 3.5 7.8 0.00 0.98 0.97 80 1020.4
20210920001026 60 180 2.6 7.8 0.00 0.98 0.97 81 1020.3
20210920000531 60 188 1.7 10.4 0.00 0.98 0.97 81 1020.3
20210920000115 60 205 3.5 10.4 0.00 0.98 0.97 79 1020.3
20210919235529 61 166 2.6 8.7 0.00 0.98 0.97 77 1020.3
20210919235021 61 188 4.3 8.7 0.00 0.98 0.97 75 1020.3
20210919234532 62 15 2.6 9.6 0.00 0.98 0.97 73 1020.2
20210919234052 62 153 3.5 9.6 0.00 0.98 0.97 73 1020.1
20210919233522 62 198 5.2 9.6 0.00 0.98 0.97 73 1020.0
20210919233056 62 189 4.3 9.6 0.00 0.98 0.97 73 1020.1
20210919232600 62 191 3.5 7.8 0.00 0.98 0.97 72 1020.1
20210919232023 62 185 3.5 7.8 0.00 0.98 0.97 73 1020.0
20210919231604 62 192 2.6 7.8 0.00 0.98 0.97 72 1020.0
20210919231026 63 208 3.5 7.8 0.00 0.98 0.97 71 1019.8
20210919230531 63 205 3.5 7.8 0.00 0.98 0.97 70 1019.9
20210919230043 63 208 2.6 7.8 0.00 0.98 0.97 73 1019.8
20210919225522 63 182 2.6 7.8 0.00 0.98 0.97 73 1019.8
20210919225022 64 209 2.6 7.8 0.00 0.98 0.97 71 1019.6
20210919224540 64 123 2.6 9.6 0.00 0.98 0.97 71 1019.6
20210919224028 65 195 5.2 9.6 0.00 0.98 0.97 70 1019.6
20210919223522 65 194 3.5 9.6 0.00 0.98 0.97 71 1019.6
20210919223046 65 144 4.3 9.6 0.00 0.98 0.97 74 1019.5
20210919222539 64 188 2.6 9.6 0.00 0.98 0.97 76 1019.7
20210919222021 65 158 3.5 8.7 0.00 0.98 0.97 80 1019.5
20210919221541 63 168 1.7 6.1 0.00 0.98 0.97 82 1019.6
20210919221033 63 178 1.7 7.8 0.00 0.98 0.97 84 1019.6
20210919220526 62 206 1.7 7.8 0.01 0.98 0.97 84 1019.5
20210919220210 62 167 3.5 7.0 0.01 0.98 0.97 85 1019.6
20210919215525 62 193 2.6 7.0 0.01 0.98 0.97 85 1019.5
20210919215024 62 187 1.7 5.2 0.01 0.98 0.97 89 1019.5
20210919214549 61 176 1.7 4.3 0.01 0.98 0.97 90 1019.5
20210919214030 61 0 0.0 2.6 0.01 0.98 0.97 89 1019.4
20210919213523 61 120 0.0 4.3 0.01 0.98 0.97 89 1019.4
20210919213046 60 0 0.9 6.1 0.01 0.98 0.97 90 1019.3
20210919212522 60 121 1.7 6.1 0.01 0.98 0.97 90 1019.4
20210919212023 60 145 0.0 2.6 0.01 0.98 0.97 88 1019.4
20210919211603 61 111 0.0 2.6 0.01 0.98 0.97 91 1019.3
20210919211024 60 0 0.0 3.5 0.00 0.97 0.96 91 1019.3
20210919210531 60 108 1.7 7.8 0.00 0.97 0.96 91 1019.3
20210919210048 60 141 2.6 7.8 0.00 0.97 0.96 90 1019.4
20210919205524 60 144 3.5 10.4 0.00 0.97 0.96 90 1019.3
20210919205033 60 138 4.3 13.0 0.00 0.97 0.96 87 1019.3
20210919204611 61 118 3.5 13.0 0.00 0.97 0.96 83 1019.3
20210919204023 62 115 3.5 7.0 0.00 0.97 0.96 81 1018.8
20210919203527 62 123 2.6 7.8 0.00 0.97 0.96 80 1018.8
20210919203112 62 98 2.6 8.7 0.00 0.97 0.96 77 1018.8
20210919202523 63 155 4.3 8.7 0.00 0.97 0.96 76 1018.7
20210919202022 63 137 0.0 6.1 0.00 0.97 0.96 76 1018.8
20210919201558 62 0 1.7 11.3 0.00 0.97 0.96 80 1018.8
20210919201030 63 188 5.2 12.2 0.00 0.97 0.96 78 1018.8
20210919200529 64 142 4.3 12.2 0.00 0.97 0.96 76 1018.7
20210919200035 63 177 4.3 9.6 0.00 0.97 0.96 78 1018.8
20210919195535 63 111 2.6 7.8 0.00 0.97 0.96 80 1018.6
20210919195024 62 53 1.7 7.8 0.00 0.97 0.96 80 1018.6
20210919194555 61 126 3.5 8.7 0.00 0.97 0.96 81 1018.5
20210919194025 61 156 2.6 9.6 0.00 0.97 0.96 82 1018.5
20210919193522 62 113 1.7 9.6 0.00 0.97 0.96 80 1018.6
20210919193031 62 196 2.6 9.6 0.00 0.97 0.96 84 1018.6
20210919192535 62 199 3.5 9.6 0.00 0.97 0.96 83 1018.6
20210919192023 61 165 2.6 9.6 0.00 0.97 0.96 82 1018.6
20210919191555 61 254 3.5 9.6 0.00 0.97 0.96 82 1018.5
20210919191042 61 175 1.7 6.1 0.00 0.97 0.96 82 1018.5
20210919190522 60 137 1.7 5.2 0.00 0.97 0.96 88 1018.5
20210919190102 60 134 0.0 6.1 0.00 0.97 0.96 88 1018.4
20210919185522 60 0 2.6 6.1 0.00 1.00 0.96 88 1018.3
20210919185022 60 138 1.7 5.2 0.00 1.00 0.96 85 1018.2
20210919184526 60 236 0.9 7.0 0.00 1.00 0.96 86 1018.1
20210919184025 59 167 1.7 7.8 0.00 1.00 0.96 87 1018.1
20210919183539 59 196 2.6 7.8 0.00 1.00 0.96 87 1018.1
20210919183034 59 182 1.7 7.8 0.00 1.00 0.96 89 1018.1
20210919182523 58 135 2.6 7.8 0.00 1.00 0.96 90 1017.9
20210919182026 58 157 1.7 8.7 0.00 1.00 0.96 91 1017.8
20210919181611 58 131 2.6 8.7 0.00 1.00 0.96 91 1017.8
20210919181025 58 160 4.3 7.8 0.00 1.00 0.96 91 1017.9
20210919180546 58 144 2.6 5.2 0.00 1.00 0.96 92 1017.8
20210919180037 58 115 1.7 7.0 0.00 1.00 0.96 91 1017.6
20210919175525 57 159 1.7 7.0 0.00 1.07 0.96 90 1017.7
20210919175046 57 163 0.9 5.2 0.00 1.07 0.96 92 1017.6
20210919174529 57 161 1.7 4.3 0.00 1.07 0.96 93 1017.5
20210919174029 57 180 0.0 6.1 0.00 1.07 0.96 91 1017.5
20210919173523 57 166 3.5 6.1 0.00 1.07 0.96 92 1017.4
20210919173033 57 140 2.6 6.1 0.00 1.07 0.96 93 1017.5
20210919172521 57 156 2.6 5.2 0.00 1.07 0.96 92 1017.3
20210919172022 57 110 1.7 6.1 0.00 1.07 0.96 94 1017.3
20210919171611 57 0 0.9 6.1 0.00 1.07 0.96 93 1017.3
20210919171032 56 192 2.6 6.1 0.00 1.07 0.96 95 1017.1
20210919170525 56 144 2.6 6.1 0.00 1.07 0.96 94 1017.0
20210919170058 56 128 2.6 5.2 0.00 1.07 0.96 95 1017.1
20210919165525 56 157 0.9 4.3 0.00 1.22 0.96 95 1016.9
20210919165034 56 0 0.0 3.5 0.00 1.22 0.96 96 1016.7
20210919164547 55 175 0.9 3.5 0.00 1.22 0.96 96 1016.6
20210919164024 55 165 0.9 3.5 0.00 1.22 0.96 96 1016.4
20210919163526 55 0 0.0 3.5 0.00 1.22 0.96 96 1016.4
20210919163045 55 164 0.9 5.2 0.00 1.22 0.96 97 1016.1
20210919162531 54 148 1.7 5.2 0.00 1.22 0.96 96 1016.0
20210919162022 54 154 1.7 5.2 0.00 1.22 0.96 96 1015.9
20210919161539 54 148 0.9 4.3 0.00 1.22 0.96 96 1015.7
20210919161032 54 178 1.7 4.3 0.00 1.22 0.96 97 1015.8
20210919160625 54 0 0.9 3.5 0.00 1.22 0.96 97 1015.7
20210919160054 54 182 1.7 3.5 0.00 1.22 0.96 97 1015.7
20210919155526 54 0 0.9 3.5 0.00 1.50 0.96 97 1015.5
20210919155022 53 165 0.9 4.3 0.01 1.50 0.96 97 1015.5
20210919154605 53 165 0.9 4.3 0.01 1.50 0.96 96 1015.4
20210919154025 53 178 1.7 3.5 0.01 1.50 0.96 97 1015.2
20210919153526 53 189 0.0 3.5 0.02 1.50 0.96 96 1015.4
20210919153046 53 180 0.0 2.6 0.02 1.50 0.96 97 1015.2
20210919152527 53 0 0.0 2.6 0.02 1.50 0.96 97 1015.1
20210919152023 53 0 0.0 2.6 0.03 1.50 0.96 97 1015.1
20210919151538 53 228 0.0 2.6 0.04 1.50 0.96 97 1014.9
20210919151023 53 134 0.0 3.5 0.04 1.50 0.96 97 1014.8
20210919150524 53 0 0.9 3.5 0.05 1.50 0.96 96 1014.6
20210919150043 53 0 0.0 1.7 0.06 1.50 0.96 97 1014.6
20210919145530 53 180 0.9 3.5 0.06 1.79 0.96 97 1014.5
20210919145022 52 0 0.0 3.5 0.06 1.78 0.95 97 1014.3
20210919144537 52 194 0.0 3.5 0.07 1.78 0.95 97 1014.2
20210919144029 52 181 0.9 3.5 0.08 1.78 0.95 97 1014.1
20210919143523 52 0 0.9 3.5 0.08 1.77 0.94 97 1013.9
20210919143046 52 0 0.0 2.6 0.09 1.77 0.94 97 1013.8
20210919142522 52 202 0.0 2.6 0.10 1.76 0.93 97 1013.8
20210919142023 52 188 0.9 2.6 0.11 1.76 0.93 97 1013.7
20210919141538 52 188 0.0 3.5 0.11 1.75 0.92 97 1013.6
20210919141023 52 0 0.0 5.2 0.13 1.75 0.92 97 1013.4
20210919140535 52 194 1.7 5.2 0.14 1.74 0.91 97 1013.3
20210919140113 52 211 1.7 4.3 0.14 1.73 0.90 97 1013.3
20210919135522 52 195 0.9 4.3 0.15 1.90 0.89 97 1013.2
20210919135023 52 194 1.7 4.3 0.17 1.90 0.89 97 1013.2
20210919134534 52 208 2.6 4.3 0.18 1.89 0.88 97 1013.2
20210919134025 52 185 0.9 4.3 0.19 1.88 0.87 97 1013.1
20210919133524 52 0 0.9 4.3 0.20 1.87 0.86 97 1013.1
20210919133042 52 181 1.7 4.3 0.20 1.85 0.84 97 1013.0
20210919132539 52 0 0.9 7.0 0.21 1.84 0.83 97 1012.8
20210919132030 52 143 0.0 8.7 0.22 1.83 0.82 97 1012.7
20210919131529 52 142 2.6 8.7 0.23 1.81 0.80 97 1012.5
20210919131022 52 146 1.7 4.3 0.24 1.80 0.79 97 1012.5
20210919130524 52 152 0.9 3.5 0.24 1.78 0.77 97 1012.5
20210919130043 52 148 0.9 3.5 0.26 1.77 0.76 97 1012.3
20210919125533 52 128 0.9 2.6 0.27 1.86 0.74 97 1012.3
20210919125022 52 128 0.0 3.5 0.28 1.84 0.72 96 1012.2
20210919124628 52 108 0.9 3.5 0.28 1.82 0.70 96 1012.1
20210919124033 52 135 0.0 2.6 0.29 1.80 0.68 96 1012.0
20210919123526 52 127 0.0 6.1 0.30 1.78 0.66 96 1012.0
20210919123029 52 0 0.9 6.1 0.31 1.76 0.64 96 1012.0
20210919122524 52 0 0.9 5.2 0.33 1.74 0.62 96 1011.9
20210919122025 52 0 0.0 2.6 0.33 1.71 0.58 96 1011.8
20210919121535 52 126 0.0 4.3 0.33 1.69 0.57 96 1011.9
20210919121034 52 136 0.9 4.3 0.34 1.67 0.55 96 1011.9
20210919120524 52 132 0.9 2.6 0.34 1.64 0.52 96 1011.8
20210919120115 52 0 0.0 3.5 0.34 1.62 0.50 96 1011.8
20210919115530 52 144 0.0 3.5 0.34 1.66 0.47 96 1011.6
20210919115023 52 0 0.0 0.0 0.33 1.63 0.44 96 1011.7
20210919114526 52 0 0.0 0.0 0.32 1.60 0.41 96 1011.5
20210919114023 52 0 0.0 0.0 0.30 1.57 0.38 96 1011.6
20210919113529 52 0 0.0 0.0 0.28 1.54 0.35 96 1011.4
20210919113040 52 0 0.0 0.0 0.26 1.51 0.32 96 1011.4
20210919112542 52 0 0.0 0.0 0.24 1.48 0.29 96 1011.4
20210919112034 52 0 0.0 0.0 0.21 1.45 0.26 96 1011.4
20210919111540 52 0 0.0 0.0 0.19 1.42 0.23 96 1011.3
20210919111023 52 0 0.0 0.0 0.16 1.39 0.20 96 1011.2
20210919110524 52 0 0.0 0.0 0.15 1.37 0.18 96 1011.3
20210919110107 51 0 0.0 0.0 0.12 1.34 0.15 96 1011.2
20210919105537 52 0 0.0 0.0 0.11 1.38 0.13 96 1011.2
20210919105024 51 0 0.0 0.0 0.09 1.36 0.11 96 1011.2
20210919104620 51 0 0.0 0.0 0.07 1.34 0.09 96 1011.2
20210919104032 51 0 0.0 2.6 0.07 1.33 0.08 96 1011.2
20210919103535 51 0 0.0 2.6 0.06 1.32 0.07 96 1011.0
20210919103044 51 355 1.7 2.6 0.05 1.31 0.06 96 1011.2
20210919102523 51 0 0.0 2.6 0.04 1.30 0.05 96 1011.1
20210919102022 51 0 0.9 2.6 0.04 1.30 0.05 96 1011.1
20210919101547 51 40 0.0 1.7 0.03 1.29 0.04 96 1011.0
20210919101031 50 40 0.0 1.7 0.03 1.29 0.04 95 1010.9
20210919100528 50 0 0.0 1.7 0.02 1.28 0.03 95 1011.0
20210919100104 50 327 0.0 1.7 0.02 1.28 0.03 95 1011.1
20210919095541 50 0 0.0 1.7 0.01 1.34 0.02 95 1011.1
20210919095024 51 0 0.0 1.7 0.01 1.34 0.02 95 1011.0
20210919094607 51 0 0.0 1.7 0.01 1.34 0.02 95 1011.0
20210919094022 51 327 0.0 3.5 0.00 1.33 0.01 95 1011.1
20210919093522 51 0 1.7 3.5 0.00 1.33 0.01 94 1011.1
20210919093028 51 0 0.0 1.7 0.00 1.33 0.01 94 1011.1
20210919092522 51 0 0.0 1.7 0.01 1.33 0.01 94 1011.0
20210919092024 51 316 0.0 5.2 0.01 1.33 0.01 93 1010.8
20210919091530 51 316 0.9 5.2 0.01 1.33 0.01 92 1010.9
20210919091036 51 265 2.6 7.8 0.01 1.33 0.01 93 1010.9
20210919090526 52 317 4.3 7.8 0.01 1.33 0.01 93 1010.8
20210919090036 52 324 1.7 6.1 0.01 1.33 0.01 93 1010.9
20210919085538 52 317 2.6 6.1 0.01 1.40 0.01 93 1010.8
20210919085021 52 249 1.7 6.1 0.01 1.40 0.01 93 1010.6
20210919084552 52 261 0.9 6.1 0.01 1.40 0.01 93 1010.7
20210919084046 52 316 0.9 3.5 0.01 1.40 0.01 94 1010.7
20210919083522 52 219 1.7 7.8 0.01 1.40 0.01 94 1010.3
20210919083048 52 263 1.7 7.8 0.01 1.40 0.01 95 1010.2
20210919082522 53 227 0.9 5.2 0.00 1.39 0.00 95 1010.1
20210919082022 53 0 0.0 1.7 0.00 1.39 0.00 95 1009.9
20210919081549 53 195 0.0 2.6 0.00 1.39 0.00 95 1009.8
20210919081023 53 0 0.0 3.5 0.00 1.39 0.00 94 1009.9
20210919080523 53 190 0.9 7.8 0.00 1.39 0.00 95 1010.0
20210919080125 53 191 2.6 7.8 0.00 1.39 0.00 95 1009.8
20210919075532 55 236 3.5 7.8 0.00 1.45 0.00 95 1009.8
20210919075035 55 169 2.6 7.8 0.00 1.45 0.00 96 1010.0
20210919074525 55 190 2.6 7.8 0.00 1.45 0.00 96 1009.9
20210919074022 55 138 0.9 5.2 0.00 1.45 0.00 95 1009.8
20210919073524 55 174 1.7 7.8 0.00 1.45 0.00 95 1009.8
20210919073134 55 144 2.6 9.6 0.00 1.45 0.00 95 1009.7
20210919072537 55 152 3.5 9.6 0.00 1.45 0.00 95 1009.6
20210919072022 55 114 1.7 9.6 0.00 1.45 0.00 96 1009.6
20210919071553 55 132 2.6 9.6 0.00 1.45 0.00 95 1009.6
20210919071022 55 133 2.6 6.1 0.00 1.45 0.00 96 1009.5
20210919070527 55 152 2.6 6.1 0.00 1.45 0.00 96 1009.6
20210919070043 55 163 2.6 8.7 0.00 1.45 0.00 96 1009.6
20210919065521 55 152 2.6 8.7 0.00 1.56 1.45 96 1009.6
20210919065024 55 123 3.5 7.8 0.00 1.56 1.45 96 1009.6
20210919064555 55 143 1.7 10.4 0.00 1.56 1.45 96 1009.5
20210919064036 55 146 2.6 10.4 0.00 1.56 1.45 96 1009.3
20210919063522 55 152 2.6 7.0 0.00 1.56 1.45 96 1009.3
20210919063101 55 120 0.9 6.1 0.00 1.56 1.45 96 1009.3
20210919062522 55 115 1.7 6.1 0.00 1.56 1.45 96 1009.4
20210919062028 55 135 1.7 7.8 0.00 1.56 1.45 96 1009.3
20210919061544 55 127 2.6 7.8 0.00 1.56 1.45 95 1009.4
20210919061022 55 154 3.5 8.7 0.00 1.56 1.45 95 1009.3